Miscellaneous Local Product
Issued by NWS North Platte, NE

Home | Current Version | Previous Version | Text Only | Print | Product List | Glossary On
Versions: 1 2 3 4 5 6 7 8 9 10 11 12 13 14 15 16 17 18 19 20 21 22 23 24 25 26 27 28 29 30 31 32 33 34 35 36 37 38 39 40 41 42 43 44 45 46 47 48 49 50
288
AXUS43 KLBF 260710
MISLBF


WESTERN AND NORTH CENTRAL NEBRASKA HOURLY WEATHER ROUNDUP
NATIONAL WEATHER SERVICE NORTH PLATTE NE
200 AM CDT THU APR 26 2018

NOTE: "FAIR" INDICATES FEW OR NO CLOUDS BELOW 12,000 FEET WITH NO
SIGNIFICANT WEATHER AND/OR OBSTRUCTIONS TO VISIBILITY.

NOTE: STATIONS NOT REPORTING VARIABLES SUCH AS SKY/WEATHER OR
PRESSURE ARE PROVIDED BY RAWS AND APRS NETWORKS AND ARE NOT UNDER
NATIONAL WEATHER SERVICE QUALITY CONTROL.

...OBSERVATIONS IN AND NEAR THE EASTERN PANHANDLE OF NEBRASKA...

CITY           SKY/WX    TMP DP  RH WIND       PRES   REMARKS
PINE RIDGE     CLOUDY    56  28  34 N13G21    29.97R
GORDON         FAIR      51  31  46 N15       29.94S
CHADRON        CLOUDY    51  31  46 NE6       29.98R
ALLIANCE       CLOUDY    46  32  58 NW10      29.93R
SIDNEY         PTCLDY    47  29  49 SW13      29.95S
CRESCENT LAKE    N/A     47  32  56 S6          N/A
$$

...OBSERVATIONS IN NORTHERN NEBRASKA AND FAR SOUTHERN SOUTH DAKOTA...

CITY           SKY/WX    TMP DP  RH WIND       PRES   REMARKS
WINNER         FAIR      52  31  44 SW16      29.88R
VALENTINE      MOCLDY    46  32  58 W14       29.93R
AINSWORTH      CLOUDY    47  33  58 SW10      29.92R
O`NEILL        CLOUDY    47  35  63 S9        29.92F
THEDFORD       CLOUDY    49  32  52 CALM      29.93R
BROKEN BOW     MOCLDY    42  33  70 S3        29.94F
ORD            MOCLDY    39  34  82 S5        29.94F
ALBION         MOCLDY    41  33  75 SE3       29.97F
VALENTINE NWR    N/A     45  32  59 S7          N/A
HALSEY           N/A     47  28  48 S8          N/A
BUTTE            N/A     47  35  62 SW8         N/A
CHAMBERS         N/A     44  31  61 S3          N/A
EWING            N/A     45  34  65 S6          N/A
$$

...OBSERVATIONS IN SOUTHWEST NEBRASKA AND FAR NORTHEAST COLORADO...

CITY           SKY/WX    TMP DP  RH WIND       PRES   REMARKS
WRAY           FAIR      43  32  65 SW9       29.96F
HOLYOKE        FAIR      41  34  75 SW6       29.94F
IMPERIAL       PTCLDY    40  34  79 S7        29.96F
OGALLALA       MOCLDY    45  35  67 W5        29.93F
NORTH PLATTE   CLOUDY    46  32  58 SW7       29.95S
MCCOOK         MOCLDY    42  34  73 SW10      29.97F
LEXINGTON      CLOUDY    44  35  70 S10       29.97F
STAPLETON        N/A     40  31  70 CALM        N/A
GOTHENBURG       N/A     47  33  57 S6          N/A
CALLAWAY         N/A     43  35  74 S12         N/A
$$

...OBSERVATIONS IN CENTRAL LINCOLN COUNTY AREA...

CITY           SKY/WX    TMP DP  RH WIND       PRES   REMARKS
N.P. AIRPORT   CLOUDY    46  32  58 SW7       29.95S
N.P. DOWNTOWN    N/A     47  33  59 SW3         N/A
N.P. SOUTHEAST   N/A     48  33  56 S7G14       N/A
N.P. HILLCREST   N/A     48  34  58 SW3         N/A
$$

...OBSERVATIONS ACROSS THE ROCKIES AND WESTERN HIGH PLAINS...

CITY           SKY/WX    TMP DP  RH WIND       PRES   REMARKS
RAPID CITY     CLOUDY    53  31  42 NW24G32   30.00R
SCOTTSBLUFF    CLOUDY    56  28  34 N31G45    29.94S
CHEYENNE       MOCLDY    47  22  37 N20G33    30.08R
DENVER         MOCLDY    50  27  40 W12       29.99S
BERTHOUD PASS  FAIR      27  18  69 NW45G54   30.22F WCI   7
MONARCH PASS   PTCLDY    30   3  31 W25       30.40F WCI  16
ASPEN          CLEAR     35  17  47 S9        30.18S WCI  28
STEAMBOAT      FAIR      36  22  57 E3        30.15S
LARAMIE        MOCLDY    41  18  39 NE12      30.12R
CASPER         CLOUDY    44  29  55 NE13      30.21R
$$

...OBSERVATIONS ACROSS THE NORTHERN PLAINS...

CITY           SKY/WX    TMP DP  RH WIND       PRES   REMARKS
BISMARCK       PTCLDY    50  32  50 N17G26    29.96R
FARGO          FAIR      46  37  71 SW9       29.79R
PIERRE         CLOUDY    46  32  58 W6        29.85R
SIOUX FALLS    CLOUDY    48  31  51 SW9       29.91F
$$

...OBSERVATIONS ACROSS THE CENTRAL AND SOUTHERN PLAINS...

CITY           SKY/WX    TMP DP  RH WIND       PRES   REMARKS
OMAHA          CLOUDY    44  37  76 SE6       29.98F
GRAND ISLAND   CLOUDY    44  35  70 S10       29.99S
KANSAS CITY    CLEAR     43  42  97 W5        30.00F
WICHITA        PTCLDY    38  38 100 W3        30.03F FOG
DODGE CITY     CLEAR     36  32  85 S9        30.04F WCI  29
OKLAHOMA CITY  CLEAR     44  40  85 N6        30.05F
DALLAS         CLEAR     50  46  86 NW9       30.05F
AMARILLO       CLEAR     45  32  60 S12       30.09F
$$




USA.gov is the U.S. government's official web portal to all federal, state and local government web resources and services.